EHI
0 0 0 0 1 1 2 3 4 5 7 10 12 16 20 21 19 16 14 10 10 15 21 23 25 25 25 25 25 24 26 28 27 24 23 22 21 21 19 15 9 6 5 5
0 0 0 0 1 1 1 2 4 7 8 8 11 14 17 19 18 17 14 11 11 14 19 22 25 26 27 26 24 22 24 27 27 26 25 24 23 22 18 15 11 8 7 7
0 0 0 0 1 1 2 2 4 7 7 7 9 12 15 17 18 18 17 14 13 13 15 19 23 26 28 27 24 21 23 25 25 25 25 24 23 21 18 15 13 10 8 9
0 0 0 0 0 2 3 3 4 6 7 7 8 10 13 18 21 20 19 17 15 13 14 16 20 24 26 26 24 22 23 24 24 23 23 22 22 20 19 17 14 10 8 8
0 0 0 0 1 1 2 2 4 6 7 7 8 9 12 17 22 21 19 18 16 14 15 17 19 20 22 23 22 21 23 24 24 23 22 22 21 20 20 18 14 10 9 10
0 0 1 1 2 1 0 1 3 5 6 7 9 10 11 16 21 21 20 20 20 18 17 17 17 17 19 20 20 20 21 23 23 23 22 22 21 21 21 21 18 14 12 12
0 0 1 2 2 1 0 0 2 5 6 8 11 11 13 17 21 22 22 23 22 20 17 15 14 14 15 16 17 17 18 21 22 21 20 20 21 20 22 24 23 20 16 14
0 0 1 1 1 0 0 1 3 5 7 10 13 14 16 19 19 20 22 23 22 19 15 12 12 11 10 11 14 15 16 19 21 20 19 18 19 20 22 25 25 24 21 17
0 0 0 0 0 1 1 2 4 5 8 12 14 15 16 17 16 15 16 18 18 17 13 11 10 9 8 9 12 15 17 18 19 19 18 17 17 18 21 23 24 23 22 20
0 0 0 0 0 1 2 2 2 4 7 11 13 13 13 12 11 11 12 13 15 15 13 11 11 9 8 9 12 14 16 17 18 17 15 13 13 13 16 19 21 21 21 20
0 0 0 0 0 1 1 1 1 2 6 10 12 12 10 8 7 7 8 10 12 13 12 11 10 10 8 8 8 10 13 14 14 14 12 10 8 7 8 11 14 15 16 15
0 0 0 0 0 0 0 0 0 2 7 11 12 11 9 6 4 4 5 7 10 11 11 10 10 9 7 5 4 5 7 8 8 9 9 8 6 3 2 4 6 7 8 8
0 0 0 0 0 0 0 0 1 3 7 11 12 11 8 5 3 2 3 5 8 10 10 9 9 8 6 4 2 2 2 4 4 5 7 8 7 4 1 1 1 1 1 2
0 0 0 0 0 0 0 1 2 4 7 10 11 11 9 5 3 3 3 5 7 9 9 8 8 7 6 5 3 2 2 3 3 4 6 8 9 6 2 1 1 1 1 1
0 0 0 0 0 0 0 1 3 5 7 8 9 10 8 5 3 3 3 4 6 8 8 7 7 6 6 5 4 4 3 3 3 4 5 7 7 6 3 2 2 2 2 2
0 0 0 0 0 0 0 1 3 5 5 6 7 8 6 4 2 3 3 3 5 7 8 7 7 6 5 5 5 5 4 4 3 3 3 4 5 4 3 1 1 1 1 2
0 0 0 0 0 0 0 1 3 3 3 3 3 4 3 2 2 3 3 3 5 7 8 8 7 6 5 5 5 4 4 4 4 3 3 4 5 4 3 1 0 0 0 1
0 0 0 0 0 0 0 1 2 2 1 1 1 1 1 1 1 2 2 3 5 7 7 7 6 4 3 3 3 3 3 4 4 3 3 4 5 5 3 1 0 0 0 0
0 0 0 0 0 0 0 1 1 1 0 0 0 0 0 0 0 1 1 2 4 4 4 4 3 2 1 1 1 2 2 3 3 2 3 4 6 6 4 1 0 0 0 0
0 0 0 0 0 0 0 0 0 0 0 0 0 0 0 0 0 0 0 0 1 1 1 1 2 1 0 0 0 1 1 1 1 2 3 5 6 6 4 1 0 0 0 0
0 0 0 0 0 0 0 0 0 0 0 0 0 0 0 0 0 0 0 0 0 0 0 1 2 2 1 0 0 0 0 0 0 1 2 4 5 6 4 2 1 1 0 0
0 0 0 0 0 0 0 0 0 0 0 0 0 0 0 0 0 0 0 0 0 0 0 0 1 2 2 1 1 0 0 0 0 0 1 1 3 3 3 2 2 1 0 0
0 0 0 0 0 0 0 0 0 0 0 0 0 0 0 0 0 0 0 0 0 0 0 0 0 1 1 2 2 1 1 0 0 0 0 0 1 1 1 1 1 1 0 0
0 0 0 0 0 0 0 0 0 0 0 0 0 0 0 0 0 0 0 0 0 0 0 0 0 0 1 2 3 3 2 1 0 0 0 0 0 0 0 0 0 0 0 0
0 0 0 0 0 0 0 0 0 0 0 0 0 0 0 0 0 0 0 0 0 0 0 0 0 0 0 1 3 3 3 1 0 0 0 0 0 0 0 0 0 1 0 0
0 0 0 0 0 0 0 0 0 0 0 0 0 0 0 0 0 0 0 0 0 0 0 0 0 0 0 1 2 3 3 2 1 0 0 0 0 0 0 0 0 0 0 0
0 0 0 0 0 0 0 0 0 0 0 0 0 0 0 0 0 0 0 0 0 0 0 0 0 0 0 1 2 3 3 2 1 0 0 0 0 0 0 0 0 0 0 0
Wind_Speed
4 3 1 0 1 0 3 7 7 7 7 7 7 8 8 8 7 7 6 6 6 5 4 4 3 4 5 5 4 5 5 4 4 4 4 3 3 3 4 4 4 3 3 2
2 1 2 4 5 1 0 2 5 4 3 3 3 4 5 7 7 7 6 5 5 5 4 4 4 4 5 5 5 5 5 4 4 3 3 3 3 3 3 3 3 3 3 3
2 3 4 4 4 1 2 1 5 4 4 3 4 5 7 8 7 7 7 5 5 4 4 4 4 5 5 5 5 5 5 4 4 4 4 3 3 3 3 3 3 3 3 3
1 4 0 5 3 4 7 5 4 4 3 4 4 4 4 5 7 6 5 5 4 3 3 3 3 3 4 4 4 5 4 4 4 4 4 3 3 3 3 3 3 3 3 4
3 2 2 3 3 1 4 4 4 5 4 3 3 6 4 2 3 5 5 4 4 3 3 3 3 3 4 4 4 4 4 4 4 4 4 3 3 4 3 3 3 3 3 4
4 3 4 4 5 1 7 2 3 3 4 3 3 2 2 0 3 3 3 3 3 2 3 3 2 3 4 4 4 4 5 4 4 4 4 4 4 4 3 3 3 3 2 3
3 3 3 5 5 2 4 5 2 2 3 4 3 4 3 3 4 4 4 3 3 4 3 2 2 3 3 3 4 4 4 3 3 3 3 4 3 3 2 3 2 2 3 2
3 3 4 5 2 3 5 3 2 2 3 4 4 4 4 5 4 5 4 4 3 3 2 1 2 3 3 2 3 2 3 3 3 3 3 2 2 2 2 3 3 2 2 2
4 4 4 1 2 2 4 4 2 3 4 7 6 5 4 5 4 4 3 3 2 3 3 3 2 3 2 1 1 2 3 2 2 2 2 2 2 2 2 2 2 2 2 2
3 1 0 1 3 2 3 4 3 4 6 8 7 6 6 5 4 3 3 3 3 4 4 3 3 3 1 1 1 3 2 2 2 2 1 0 1 2 2 2 2 2 3 3
2 0 2 3 2 3 3 5 5 5 5 6 8 7 6 4 3 3 2 2 3 3 3 1 1 2 2 2 2 2 2 1 1 1 2 1 1 1 2 2 4 4 3 3
3 3 2 2 1 3 4 4 5 6 5 4 5 6 5 4 3 3 2 2 2 2 2 1 1 2 2 2 1 2 2 1 1 1 1 1 1 1 2 1 3 4 4 4
4 3 3 1 1 3 4 3 4 5 5 4 3 5 5 4 3 3 2 2 2 2 1 1 1 1 1 1 1 1 1 1 1 1 1 1 1 1 1 3 3 3 4 4
2 3 2 1 1 2 3 3 4 4 4 4 4 4 4 3 3 2 2 1 1 1 1 0 0 1 2 1 1 1 0 1 1 1 1 2 2 2 2 2 2 3 3 4
1 3 3 2 2 2 2 3 4 3 3 3 3 4 4 3 2 2 1 1 1 1 0 0 0 2 3 1 1 1 1 1 1 1 2 2 2 2 2 2 2 2 2 2
2 3 4 3 2 1 2 3 3 2 2 2 3 3 3 3 2 1 0 1 2 1 2 2 2 3 3 1 1 1 2 3 2 1 1 1 1 2 2 2 2 2 2 2
3 2 2 2 2 1 2 2 3 3 3 2 2 2 3 3 2 1 1 1 1 2 2 2 3 2 2 2 2 2 2 3 3 1 1 1 1 2 2 2 2 2 3 3
4 4 5 5 4 3 2 2 3 3 2 2 2 2 2 2 1 1 2 1 1 1 2 2 2 2 2 2 2 1 1 1 1 1 2 2 2 1 1 2 2 2 2 3
4 4 3 3 3 3 3 3 3 3 2 3 3 2 1 1 1 1 1 0 0 2 4 3 2 1 2 2 1 1 1 2 2 2 2 2 2 1 1 1 2 2 2 2
4 4 4 4 4 3 3 3 3 3 2 3 3 2 1 0 0 0 0 0 2 3 3 3 2 2 2 2 1 0 1 2 2 2 2 2 2 2 2 2 2 2 2 3
4 4 3 3 2 2 2 3 3 2 2 2 3 2 2 1 1 1 0 1 3 3 3 3 2 2 2 2 2 1 1 1 2 2 2 2 2 2 2 2 2 3 3 3
3 3 2 2 2 1 1 1 2 2 1 1 2 2 1 1 1 1 2 3 4 4 2 2 2 3 3 3 1 1 1 2 2 2 2 2 2 2 2 2 3 3 3 3
2 1 1 1 2 1 0 0 1 1 1 2 2 2 3 3 3 2 3 3 3 4 3 3 4 5 5 2 2 2 2 2 2 2 2 2 2 2 3 3 3 3 3 3
1 0 0 1 1 1 0 1 1 1 1 1 2 2 3 2 2 3 3 4 5 4 3 4 5 5 4 2 2 2 2 2 2 2 2 2 2 2 2 3 3 3 3 3
0 0 1 1 1 1 2 2 1 1 1 1 1 2 2 2 3 3 3 3 4 3 2 4 5 5 3 2 2 3 3 3 2 2 2 2 2 2 2 3 3 3 3 3
0 1 1 2 2 2 1 1 1 1 1 1 1 1 1 2 2 2 2 2 3 3 3 3 3 3 3 3 3 3 3 3 3 3 3 3 3 2 2 3 3 3 3 3
0 0 0 1 1 0 1 1 1 1 1 1 2 2 2 2 2 2 2 3 3 3 2 2 3 3 3 3 3 3 3 3 3 3 3 3 3 3 3 3 3 2 2 2
Wind_Direction
205 221 142 331 300 120 159 177 176 206 202 215 201 183 171 156 148 142 144 145 151 156 154 150 158 173 177 176 173 163 154 157 172 177 173 169 171 177 172 166 167 163 153 170
332 331 58 33 358 9 128 152 152 157 231 224 184 145 140 147 149 150 159 162 161 158 152 157 169 171 169 170 170 154 154 166 171 166 169 178 185 177 169 166 164 160 167 180
264 304 47 359 313 37 80 67 145 174 218 142 118 145 157 160 162 164 163 159 159 161 165 173 178 172 169 174 160 153 159 166 169 170 174 186 179 161 172 179 171 177 182 182
149 56 129 245 287 93 93 57 74 105 102 123 150 146 133 146 153 153 153 153 162 166 170 169 163 155 151 150 151 156 164 169 169 167 172 174 165 172 187 177 176 189 193 192
124 148 225 299 331 358 107 46 32 92 96 104 110 82 44 53 131 145 151 149 153 157 160 148 138 143 136 138 149 158 172 180 178 172 173 176 186 196 191 179 186 197 198 194
130 148 207 251 290 299 98 52 334 88 104 113 80 98 263 16 109 102 101 114 121 115 107 116 132 129 133 145 153 178 186 182 177 171 176 189 194 197 192 184 191 189 205 210
138 161 242 265 297 54 122 216 254 127 136 132 150 191 195 107 95 104 98 103 111 120 122 138 133 124 141 156 186 198 183 168 164 171 188 193 188 190 186 181 181 191 209 221
123 138 246 290 22 139 190 183 147 129 131 124 122 103 96 95 92 89 86 83 98 107 104 102 116 124 138 192 212 174 153 160 173 188 197 181 175 189 178 170 181 204 216 246
153 191 232 250 145 180 151 134 135 125 121 119 110 100 98 100 96 89 90 84 81 90 74 44 55 105 122 250 176 137 143 168 185 189 195 171 166 178 176 176 184 207 211 234
80 30 352 47 66 60 108 121 111 119 122 116 112 105 94 99 89 84 78 80 72 76 73 53 33 42 49 31 101 120 139 170 174 166 165 140 161 169 175 191 196 209 215 225
85 300 25 4 32 70 83 91 90 91 97 110 115 114 115 111 104 97 77 80 92 104 104 89 52 35 21 31 73 101 108 108 118 142 147 136 146 189 182 215 214 205 212 207
203 215 163 248 295 82 89 95 105 104 98 102 118 124 119 114 107 107 108 98 94 96 98 74 46 36 12 7 67 98 95 90 117 123 161 145 136 348 336 286 267 241 227 214
183 174 156 202 92 87 94 94 104 115 124 125 122 129 129 129 123 122 123 121 136 152 151 111 57 5 329 344 41 76 131 179 191 180 190 199 194 194 268 312 310 283 258 242
153 119 87 57 94 91 96 95 97 100 112 122 127 124 124 119 114 117 139 171 170 161 167 140 74 306 295 324 11 347 237 217 218 215 219 224 224 220 214 222 264 285 279 260
156 135 151 143 94 81 89 96 95 99 107 106 117 121 124 125 141 175 194 163 112 105 177 183 347 289 282 295 321 293 275 264 243 235 224 225 225 223 228 234 241 257 281 291
138 105 112 111 105 97 89 108 116 122 131 126 127 142 147 148 148 143 153 133 131 193 232 237 237 252 251 247 263 272 275 285 278 250 256 256 238 228 230 234 243 248 250 253
147 158 148 145 149 130 113 130 131 126 117 120 147 148 127 107 90 56 341 309 225 223 228 234 245 257 259 248 238 249 262 280 293 289 258 251 254 246 232 226 238 249 251 252
168 174 171 166 164 152 137 127 121 117 113 114 107 104 113 123 148 235 273 295 345 326 284 256 251 273 278 271 251 250 250 260 261 255 253 253 256 244 224 224 240 254 272 273
122 124 128 129 137 138 136 136 133 128 118 106 99 103 117 132 178 244 275 333 300 292 290 288 292 300 286 278 285 212 235 256 269 272 265 266 272 265 240 233 245 257 263 263
99 103 98 88 83 104 122 134 130 123 130 125 116 109 97 266 240 202 124 232 249 253 268 286 296 296 283 282 311 249 249 253 259 259 256 252 256 263 256 249 247 252 257 256
107 105 106 100 87 93 115 129 129 135 149 137 141 161 192 227 221 194 166 282 281 273 278 288 284 279 274 275 295 287 273 260 259 259 260 256 252 256 259 259 256 256 260 264
111 110 113 112 105 95 110 124 131 140 149 164 169 173 192 228 235 238 230 234 251 259 258 265 268 272 274 277 266 257 256 262 265 263 262 255 247 250 254 254 253 256 257 258
117 125 133 139 150 161 113 106 140 162 197 216 217 215 220 229 219 212 251 257 255 259 255 254 259 266 274 270 249 250 258 261 260 257 253 249 246 245 251 258 261 261 261 261
101 99 146 137 105 96 132 264 261 242 225 239 236 230 228 235 256 243 235 249 256 261 255 260 263 264 262 253 247 250 254 252 250 246 248 250 252 258 262 267 272 273 268 266
161 212 161 127 146 205 220 225 258 320 321 296 284 279 266 237 237 252 254 250 252 256 258 262 268 271 263 249 242 244 245 244 240 235 240 250 253 255 260 263 265 269 271 273
194 251 220 206 210 214 208 190 199 227 225 251 276 283 289 284 274 270 270 269 270 263 257 259 263 262 254 249 241 240 241 244 240 239 241 242 244 246 254 257 262 263 267 271
45 344 351 10 319 242 173 156 175 225 229 225 257 274 276 280 282 283 280 275 269 264 268 265 256 252 252 253 248 248 247 246 243 238 239 236 236 242 248 247 249 260 271 279